STARLINK-35190 (65663 NORAD) Tracking and Keplerian Element Data

This shows tracking and keplerian element data for the satellite.

Feedback or suggestion? Click here.




ElementValue
Catalog65663
NameSTARLINK-35190
Epoch Orbit1506
Epoch Day354.0774696
Epoch Year2025
RAAN35.6062
Inclination97.6028
Eccentricity0.000122
Argument of Perigee75.3824
Mean Anonmoly284.7538
Mean Motion15.05655057
Decay Rate5.502E-05
L11 65663U 25211M 25354.07746960 .00005502 00000+0 38515-3 0 9991
L22 65663 97.6028 35.6062 0001220 75.3824 284.7538 15.05655057 15064



Live tracking and technical data element details for STARLINK-35190 (NORAD 65663). STARLINK-35190 can be tracked NOW for your location showing map with azimuth and elevation plus other details from your city location.







IsCatalogInMostPopularTable: catalog: 65663, numindb: 3
Update: records affected: 1



GetName: 65663 STARLINK-35190

Hit Count: updated at: Tue, 10 Feb 2026 03:33:02 GMT